Location: Bottom School (historical)
(37.9078°N, 89.3593°W)
Time: 19:45:16
(UTC+00:00)

SL-4 R/B - Pass Details

Date: 05 July 2022
Orbit: 425 x 653 km, 51.6° (Epoch: 16 August)

Event Time Altitude Azimuth Distance (km) Brightness Sun altitude
Exits shadow 08:04:16 - 302° (WNW) 2,497 5.4 -22.9°
Rises 08:04:19 0° 302° (WNW) 2,481 5.4 -22.9°
Reaches altitude 10° 08:08:10 10° 344° (NNW) 1,666 5.0 -22.5°
Maximum altitude 08:08:58 11° 356° (N) 1,645 5.2 -22.4°
Drops below altitude 10° 08:09:46 10° 9° (N) 1,690 5.4 -22.3°
Sets 08:13:54 0° 50° (NE) 2,655 6.8 -21.9°
